Regional Weather Roundup
Issued by NWS

Home | Current Version | Previous Version | Text Only | Print | Product List | Glossary Off
Versions: 1 2 3 4 5 6 7 8 9 10 11 12 13 14 15 16 17 18 19 20 21 22 23 24 25 26 27 28 29 30 31 32 33 34 35 36 37 38 39 40 41 42 43 44 45 46 47 48 49 50

069
ASUS45 KBOU 250610
RWRCO

WEATHER ROUNDUP FOR COLORADO
NATIONAL WEATHER SERVICE DENVER/BOULDER CO
1200 AM MDT FRI MAY 25 2018

NOTE: "FAIR" INDICATES FEW OR NO CLOUDS BELOW 12000 FEET WITH NO
SIGNIFICANT WEATHER AND/OR OBSTRUCTIONS TO VISIBILITY.

COZ001>005-013-030-031-250700-
...NORTHWEST COLORADO...

CITY           SKY/WX    TMP DP  RH WIND       PRES   REMARKS
CRAIG          FAIR      44  38  79 CALM      30.18S
HAYDEN         FAIR      50  36  58 SE7       30.21S
MEEKER         FAIR      54  36  50 E9        30.19S
RANGELY        FAIR      58  34  40 CALM      30.10R
RABBIT EARS PA FAIR      48  23  37 W10       30.46S
STEAMBOAT SPGS FAIR      51  33  49 CALM      30.23S
WALDEN         FAIR      41  30  65 SE8       30.32F
$$

COZ006>008-011-250700-
...WEST CENTRAL VALLEYS...

CITY           SKY/WX    TMP DP  RH WIND       PRES   REMARKS
GRAND JUNCTION FAIR      66  23  19 E7        30.06R
MONTROSE         N/A     61  26  26 SE14      30.16
EAGLE          FAIR      52  25  35 SE3       30.24R
RIFLE          FAIR      59  26  28 SW3       30.14R
DELTA          FAIR      66  26  21 NE8       30.12R
NUCLA          FAIR      61  12  15 SE9       30.20R
$$

COZ017>023-064>068-250700-
...SOUTHWEST COLORADO...

CITY           SKY/WX    TMP DP  RH WIND       PRES   REMARKS
DURANGO        FAIR      50  19  29 N3        30.22R
CORTEZ         FAIR      52  20  28 E5        30.17R
PAGOSA SPRINGS FAIR      48   5  17 CALM      30.30S
TELLURIDE      FAIR      51  18  27 SE5       30.41S
WOLF CREEK PAS FAIR      45   1  16 SW9       30.61F
$$

COZ009-010-012-014-032>034-037-058>063-250700-
...CENTRAL COLORADO...

CITY           SKY/WX    TMP DP  RH WIND       PRES   REMARKS
ASPEN          FAIR      49  27  42 SW9       30.28F
BUENA VISTA    FAIR      53  19  26 NW10      30.32S
COPPER MTN     FAIR      46  21  36 W6        30.57S
BERTHOUD PASS  FAIR      37  28  70 W13       30.59F
COTTONWOOD PAS FAIR      59  16  18 S3        30.43S
GUNNISON       FAIR      51  28  41 N6        30.30R
GRANBY         FAIR      43  32  65 CALM      30.34S
KREMMLING      FAIR      50  37  62 CALM      30.30S
LEADVILLE      FAIR      36  23  59 NE3       30.42F
MONARCH PASS   FAIR      43  21  42 MISG      30.66F
SALIDA         FAIR      58  28  31 SW7       30.35S
SUNLIGHT       FAIR      50  12  22 W5        30.51S
WILKERSON PASS FAIR      46  27  46 SW8       30.55S
$$

COZ069>075-250700-
...SAN LUIS VALLEY/SANGRE DE CRISTO MOUNTAINS...

CITY           SKY/WX    TMP DP  RH WIND       PRES   REMARKS
ALAMOSA        FAIR      45  24  43 SW6       30.24F
DEL NORTE      FAIR      55  10  17 W14       30.29F
LA VETA PASS   FAIR      46  34  61 NW7       30.55F
SAGUACHE       NOT AVBL
$$

COZ035-036-038>040-250700-
...NORTHERN COLORADO FRONT RANGE...

CITY           SKY/WX    TMP DP  RH WIND       PRES   REMARKS
DENVER INTL AP FAIR      59  40  49 SW10      30.12S
AURORA         PTCLDY    58  41  53 S8        30.14S
FRONT RANGE AP FAIR      61  42  50 S7        30.13S
ERIE MUNI ARPT FAIR      57  44  60 S7        30.16S
BOULDER MUN AP FAIR      66  36  32 SW7       30.12S
CENTENNIAL     FAIR      56  41  57 SW5       30.16S
BROOMFIELD     FAIR      59  41  51 W10       30.15S
FORT COLLINS   FAIR      60  48  64 CALM      30.10S
LONGMONT       FAIR      60  42  51 SW3       30.12S
$$

COZ041-046-047-076>085-087-088-250700-
...PIKES PEAK/PALMER DIVIDE AND SOUTHERN FOOTHILLS...

CITY           SKY/WX    TMP DP  RH WIND       PRES   REMARKS
COLO. SPRINGS  FAIR      61  38  42 SE8       30.22S
A. F. ACADEMY  FAIR      49  36  61 NW5       30.22R
SCHRIEVER AFB  NOT AVBL
CHEYENNE MTN   FAIR      61  35  37 SW13      30.19F
ELLICOTT       NOT AVBL
FALCON         NOT AVBL
FORT CARSON    NOT AVBL
LIMON          FAIR      45  40  82 N5        30.15R
MONUMENT HILL  FAIR      52  34  50 S10       30.25S
CANON CITY     CLEAR     64  39  39 N7        30.15F
WALSENBURG     FAIR      59  39  47 W5        30.18F
TRINIDAD       FAIR      62  41  46 NW12      30.14R
$$

COZ042>045-048>051-090-091-250700-
...NORTHEAST COLORADO...

CITY           SKY/WX    TMP DP  RH WIND       PRES   REMARKS
GREELEY ARPT   FAIR      59  48  67 NW5       30.08S
AKRON          FAIR      63  47  55 S12       30.07R
BURLINGTON     FAIR      55  49  80 SW6       30.06S
WRAY           FAIR      59  52  77 W5        30.03S
YUMA           FAIR      55  45  67 SW3       30.04S
STERLING       FAIR      55  52  88 CALM      30.02R
HOLYOKE        FAIR      63  54  72 S7        30.03S
FORT MORGAN    FAIR      62  44  51 N3        30.06R
$$

COZ086-089-092>099-250700-
...SOUTHEAST COLORADO...

CITY           SKY/WX    TMP DP  RH WIND       PRES   REMARKS
PUEBLO         FAIR      62  38  40 N9        30.10S
LA JUNTA       FAIR      65  44  46 SE6       30.05R
LAMAR          FAIR      59  46  62 NE3       29.99S
SPRINGFIELD      N/A     59  49  69 E3        30.02S
$$




USA.gov is the U.S. government's official web portal to all federal, state and local government web resources and services.